Weather History for Park Rapids, MN

Change the Weather History Date:

Monday, March 25, 2013

  Actual Average Record
Temperature  
Mean Temperature 25 °F -  
Max Temperature 34 °F 41 °F 64 °F (1961)
Min Temperature 17 °F 22 °F -18 °F (1965)
Degree Days  
Heating Degree Days 40    
Moisture  
Dew Point 14 °F    
Average Humidity 61    
Maximum Humidity 84    
Minimum Humidity 46    
Precipitation  
Precipitation 0.00 in - - ()
Sea Level Pressure  
Sea Level Pressure 30.24 in    
Wind  
Wind Speed 11 mph (NNW)    
Max Wind Speed 15 mph    
Max Gust Speed -    
Visibility 10 miles    
Events      
Averages and records for this station are not official NWS values.
T = Trace of Precipitation, MM = Missing Value Source: NWS Daily Summary

Daily Weather History Graph

Daily Weather History Graph

Search for Another Location

Airport:

Trip Planner

Search our weather history database for the weather conditions in past years. The results will help you decide how hot, cold, wet, or windy it might be!

Date:

Astronomy

Mar. 25, 2013 Rise Set
Actual Time 7:12 AM CDT 7:40 PM CDT
Civil Twilight 6:42 AM CDT 8:10 PM CDT
Nautical Twilight 6:06 AM CDT 8:46 PM CDT
Astronomical Twilight 5:29 AM CDT 9:24 PM CDT
Moon 6:09 PM CDT (3/25) 6:01 AM CDT (3/25)
Length of Visible Light 13h 28m
Length of Day
12h 27m
Waxing Gibbous, 96% of the Moon is Illuminated
Mar 25
Waxing Gibbous
Mar 27
Full
Apr 2
Last Quarter
Apr 10
New
Apr 18
First Quarter

Hourly Weather History & Observations

Time (CDT) Temp. Windchill Dew Point Humidity Pressure Visibility Wind Dir Wind Speed Gust Speed Precip Events Conditions
12:53 AM 26.1 °F 16.2 °F 15.1 °F 63% 30.18 in 10.0 mi North 10.4 mph - N/A   Overcast
1:53 AM 25.0 °F 15.5 °F 14.0 °F 63% 30.18 in 10.0 mi North 9.2 mph - N/A   Overcast
2:53 AM 24.1 °F 15.2 °F 12.9 °F 62% 30.18 in 10.0 mi North 8.1 mph - N/A   Overcast
3:53 AM 24.1 °F 15.2 °F 14.0 °F 65% 30.18 in 10.0 mi NNW 8.1 mph - N/A   Overcast
4:53 AM 24.1 °F 15.2 °F 14.0 °F 65% 30.18 in 10.0 mi NNW 8.1 mph - N/A   Overcast
5:53 AM 24.1 °F 13.1 °F 14.0 °F 65% 30.19 in 10.0 mi North 11.5 mph - N/A   Overcast
6:53 AM 23.0 °F 11.1 °F 12.9 °F 65% 30.21 in 10.0 mi North 12.7 mph - N/A   Overcast
7:53 AM 23.0 °F 11.1 °F 12.9 °F 65% 30.23 in 10.0 mi North 12.7 mph - N/A   Overcast
8:53 AM 23.0 °F 10.1 °F 12.0 °F 63% 30.25 in 10.0 mi North 15.0 mph - N/A   Overcast
9:53 AM 25.0 °F 13.6 °F 12.9 °F 60% 30.25 in 10.0 mi North 12.7 mph - N/A   Scattered Clouds
10:53 AM 27.0 °F 17.3 °F 14.0 °F 58% 30.25 in 10.0 mi NNW 10.4 mph - N/A   Clear
11:53 AM 30.0 °F 20.5 °F 14.0 °F 51% 30.26 in 10.0 mi North 11.5 mph - N/A   Partly Cloudy
12:53 PM 30.9 °F 20.7 °F 12.9 °F 47% 30.25 in 10.0 mi North 13.8 mph - N/A   Partly Cloudy
1:53 PM 32.0 °F 22.5 °F 14.0 °F 48% 30.24 in 10.0 mi North 12.7 mph - N/A   Scattered Clouds
2:53 PM 33.1 °F 23.9 °F 14.0 °F 46% 30.23 in 10.0 mi NNE 12.7 mph - N/A   Clear
3:53 PM 33.1 °F 23.9 °F 15.1 °F 48% 30.23 in 10.0 mi North 12.7 mph - N/A   Clear
4:53 PM 33.1 °F 25.5 °F 17.1 °F 52% 30.23 in 10.0 mi NNW 9.2 mph - N/A   Scattered Clouds
5:53 PM 33.1 °F 24.4 °F 17.1 °F 52% 30.24 in 10.0 mi North 11.5 mph - N/A   Mostly Cloudy
6:53 PM 30.9 °F 22.2 °F 16.0 °F 54% 30.26 in 10.0 mi NNW 10.4 mph - N/A   Mostly Cloudy
7:53 PM 26.1 °F 17.6 °F 17.1 °F 69% 30.28 in 10.0 mi NW 8.1 mph - N/A   Clear
8:53 PM 24.1 °F 14.4 °F 15.1 °F 69% 30.30 in 10.0 mi NW 9.2 mph - N/A   Clear
9:53 PM 21.0 °F 10.6 °F 15.1 °F 78% 30.31 in 10.0 mi NW 9.2 mph - N/A   Clear
10:53 PM 17.1 °F 4.3 °F 12.9 °F 84% 30.32 in 10.0 mi NW 11.5 mph - N/A   Clear
11:53 PM 17.1 °F 6.6 °F 12.0 °F 81% 30.32 in 10.0 mi NW 8.1 mph - N/A   Clear